User: anonymous   Login
Location: Caltech
(34.1382°N, 118.1253°W)
Time: 23:03:56
(UTC-07:00)
Language:

Sapphire - Orbit

View from above orbital plane
View from above orbital plane
View from above satellite
View from above satellite

Ground track
Ground track

The orbit data is extracted from the following two-line orbital elements,

1 26932U 01043D   16144.14962931  .00000006  00000-0  34268-4 0  9994
2 26932  67.0573  19.3011 0008792 260.2720  99.7389 14.30212148764594
Epoch (UTC): 23 May 2016 03:35:27
Eccentricity: 0.0008792
inclination: 67.0573°
perigee height: 785 km
apogee height: 797 km
right ascension of ascending node: 19.3011°
argument of perigee: 260.2720°
revolutions per day: 14.30212148
mean anomaly at epoch: 99.7389°
orbit number at epoch: 76459

The dashed part of the orbit path shows where the satellite is in the earth's shadow,  

DLR